Time,TemperatureF,DewpointF,PressureIn,WindDirection,WindDirectionDegrees,WindSpeedMPH,WindSpeedGustMPH,Humidity,HourlyPrecipIn,Conditions,Clouds,dailyrainin,SolarRadiationWatts/m^2,SoftwareType,DateUTC
2013-02-04 00:02:00,27.3,20.1,29.98,NNW,347,8.0,14.0,74,0.00,,,0.05,0.0,meteohub,2013-02-04 05:02:00,
2013-02-04 00:03:00,27.3,20.1,29.98,North,5,2.0,14.0,74,0.00,,,0.05,0.0,meteohub,2013-02-04 05:03:00,
2013-02-04 00:05:00,27.3,20.1,29.97,NNW,344,4.0,16.0,74,0.00,,,0.00,0.0,meteohub,2013-02-04 05:05:00,
2013-02-04 00:07:00,27.3,20.1,29.97,North,9,3.0,16.0,74,0.00,,,0.00,0.0,meteohub,2013-02-04 05:07:00,
2013-02-04 00:12:00,27.1,19.9,29.97,North,349,4.0,18.0,74,0.00,,,0.00,0.0,meteohub,2013-02-04 05:12:00,
2013-02-04 00:17:00,27.1,19.9,29.97,NNE,31,3.0,18.0,74,0.00,,,0.00,0.0,meteohub,2013-02-04 05:17:00,
2013-02-04 00:22:00,27.0,19.8,29.97,NNW,327,2.0,8.0,74,0.00,,,0.00,0.0,meteohub,2013-02-04 05:22:00,
2013-02-04 00:27:00,27.0,19.8,29.98,North,355,3.0,15.0,74,0.00,,,0.00,0.0,meteohub,2013-02-04 05:27:00,
2013-02-04 00:32:00,26.8,19.6,29.97,North,0,3.0,15.0,74,0.00,,,0.00,0.0,meteohub,2013-02-04 05:32:00,
2013-02-04 00:37:00,26.8,19.6,29.97,SW,223,3.0,20.0,74,0.00,,,0.00,0.0,meteohub,2013-02-04 05:37:00,
2013-02-04 00:42:00,26.6,19.4,29.97,NNW,331,4.0,20.0,74,0.00,,,0.00,0.0,meteohub,2013-02-04 05:42:00,
2013-02-04 00:47:00,26.6,19.4,29.97,North,5,5.0,17.0,74,0.00,,,0.00,0.0,meteohub,2013-02-04 05:47:00,
2013-02-04 00:52:00,26.6,19.4,29.98,NNW,340,4.0,17.0,74,0.00,,,0.00,0.0,meteohub,2013-02-04 05:52:00,
2013-02-04 00:57:00,26.4,19.2,29.98,West,264,5.0,17.0,74,0.00,,,0.00,0.0,meteohub,2013-02-04 05:57:00,
2013-02-04 01:02:00,26.4,19.2,29.97,North,0,6.0,14.0,74,0.00,,,0.00,0.0,meteohub,2013-02-04 06:02:00,
2013-02-04 01:07:00,26.4,19.2,29.97,NW,326,12.0,17.0,74,0.00,,,0.00,0.0,meteohub,2013-02-04 06:07:00,
2013-02-04 01:12:00,26.4,19.2,29.97,SSW,210,1.0,17.0,74,0.00,,,0.00,0.0,meteohub,2013-02-04 06:12:00,
2013-02-04 01:17:00,26.2,19.0,29.97,North,5,5.0,17.0,74,0.00,,,0.00,0.0,meteohub,2013-02-04 06:17:00,
2013-02-04 01:22:00,26.2,19.0,29.96,North,5,6.0,13.0,74,0.00,,,0.00,0.0,meteohub,2013-02-04 06:22:00,
2013-02-04 01:27:00,26.1,18.9,29.96,West,271,8.0,16.0,74,0.00,,,0.00,0.0,meteohub,2013-02-04 06:27:00,
2013-02-04 01:32:00,26.1,18.9,29.96,NNW,340,5.0,21.0,74,0.00,,,0.00,0.0,meteohub,2013-02-04 06:32:00,
2013-02-04 01:37:00,26.1,18.9,29.96,NNW,338,4.0,21.0,74,0.00,,,0.00,0.0,meteohub,2013-02-04 06:37:00,
2013-02-04 01:42:00,26.1,18.9,29.96,NNE,32,1.0,21.0,74,0.00,,,0.00,0.0,meteohub,2013-02-04 06:42:00,
2013-02-04 01:47:00,25.9,19.0,29.96,NNW,336,3.0,21.0,75,0.00,,,0.00,0.0,meteohub,2013-02-04 06:47:00,
2013-02-04 01:52:00,25.9,18.7,29.97,NNW,343,2.0,18.0,74,0.00,,,0.00,0.0,meteohub,2013-02-04 06:52:00,
2013-02-04 01:57:00,25.9,18.7,29.96,NNW,338,3.0,18.0,74,0.00,,,0.00,0.0,meteohub,2013-02-04 06:57:00,
2013-02-04 02:02:00,25.7,18.5,29.96,WSW,257,6.0,18.0,74,0.00,,,0.00,0.0,meteohub,2013-02-04 07:02:00,
2013-02-04 02:07:00,25.7,18.9,29.96,NW,324,7.0,15.0,75,0.00,,,0.00,0.0,meteohub,2013-02-04 07:07:00,
2013-02-04 02:12:00,25.7,18.9,29.96,NNW,338,4.0,15.0,75,0.00,,,0.00,0.0,meteohub,2013-02-04 07:12:00,
2013-02-04 02:17:00,25.7,18.5,29.96,NNW,327,3.0,18.0,74,0.00,,,0.00,0.0,meteohub,2013-02-04 07:17:00,
2013-02-04 02:22:00,25.5,18.7,29.97,NNW,347,3.0,18.0,75,0.00,,,0.00,0.0,meteohub,2013-02-04 07:22:00,
2013-02-04 02:27:00,25.5,18.7,29.97,North,0,6.0,16.0,75,0.00,,,0.00,0.0,meteohub,2013-02-04 07:27:00,
2013-02-04 02:32:00,25.5,18.7,29.97,North,355,2.0,18.0,75,0.00,,,0.00,0.0,meteohub,2013-02-04 07:32:00,
2013-02-04 02:37:00,25.5,18.7,29.96,NNE,21,4.0,18.0,75,0.00,,,0.00,0.0,meteohub,2013-02-04 07:37:00,
2013-02-04 02:42:00,25.5,18.7,29.97,SSW,206,2.0,18.0,75,0.00,,,0.00,0.0,meteohub,2013-02-04 07:42:00,
2013-02-04 02:47:00,25.3,18.5,29.96,WSW,246,3.0,14.0,75,0.00,,,0.00,0.0,meteohub,2013-02-04 07:47:00,
2013-02-04 02:52:00,25.3,18.5,29.96,NW,321,1.0,14.0,75,0.00,,,0.00,0.0,meteohub,2013-02-04 07:52:00,
2013-02-04 02:57:00,25.3,18.1,29.96,NW,321,1.0,13.0,74,0.00,,,0.00,0.0,meteohub,2013-02-04 07:57:00,
2013-02-04 03:02:00,25.3,18.1,29.96,NNW,342,3.0,9.0,74,0.00,,,0.00,0.0,meteohub,2013-02-04 08:02:00,
2013-02-04 03:07:00,25.3,18.5,29.96,NNW,342,0.0,9.0,75,0.00,,,0.00,0.0,meteohub,2013-02-04 08:07:00,
2013-02-04 03:12:00,25.3,18.1,29.96,North,351,5.0,12.0,74,0.00,,,0.00,0.0,meteohub,2013-02-04 08:12:00,
2013-02-04 03:17:00,25.5,18.3,29.96,SW,232,3.0,19.0,74,0.00,,,0.00,0.0,meteohub,2013-02-04 08:17:00,
2013-02-04 03:22:00,25.5,18.3,29.96,North,0,3.0,21.0,74,0.00,,,0.00,0.0,meteohub,2013-02-04 08:22:00,
2013-02-04 03:27:00,25.3,18.1,29.96,NE,51,4.0,21.0,74,0.00,,,0.00,0.0,meteohub,2013-02-04 08:27:00,
2013-02-04 03:32:00,25.5,18.3,29.96,NW,325,5.0,12.0,74,0.00,,,0.00,0.0,meteohub,2013-02-04 08:32:00,
2013-02-04 03:37:00,25.5,18.3,29.96,WNW,300,6.0,14.0,74,0.00,,,0.00,0.0,meteohub,2013-02-04 08:37:00,
2013-02-04 03:42:00,25.5,18.3,29.96,WSW,250,1.0,16.0,74,0.00,,,0.00,0.0,meteohub,2013-02-04 08:42:00,
2013-02-04 03:47:00,25.5,18.3,29.97,SW,221,2.0,16.0,74,0.00,,,0.00,0.0,meteohub,2013-02-04 08:47:00,
2013-02-04 03:52:00,25.5,18.3,29.97,NNW,346,2.0,16.0,74,0.00,,,0.00,0.0,meteohub,2013-02-04 08:52:00,
2013-02-04 03:57:00,25.5,18.3,29.98,West,275,2.0,12.0,74,0.00,,,0.00,0.0,meteohub,2013-02-04 08:57:00,
2013-02-04 04:02:00,25.3,18.0,29.98,North,0,4.0,12.0,73,0.00,,,0.00,0.0,meteohub,2013-02-04 09:02:00,
2013-02-04 04:07:00,25.5,18.1,29.98,North,355,1.0,13.0,73,0.00,,,0.00,0.0,meteohub,2013-02-04 09:07:00,
2013-02-04 04:13:00,25.5,18.1,29.98,SW,217,3.0,13.0,73,0.00,,,0.00,0.0,meteohub,2013-02-04 09:13:00,
2013-02-04 04:19:00,25.5,18.1,29.98,SW,228,4.0,13.0,73,0.00,,,0.00,0.0,meteohub,2013-02-04 09:19:00,
2013-02-04 04:25:00,25.3,18.0,29.98,ENE,65,0.0,6.0,73,0.00,,,0.00,0.0,meteohub,2013-02-04 09:25:00,
2013-02-04 04:31:00,25.3,18.0,29.98,SW,230,1.0,6.0,73,0.00,,,0.00,0.0,meteohub,2013-02-04 09:31:00,
2013-02-04 04:37:00,25.5,18.1,29.98,NW,307,1.0,6.0,73,0.00,,,0.00,0.0,meteohub,2013-02-04 09:37:00,
2013-02-04 04:42:00,25.5,17.8,29.98,West,260,3.0,8.0,72,0.00,,,0.00,0.0,meteohub,2013-02-04 09:42:00,
2013-02-04 04:47:00,25.5,17.8,29.98,NW,315,2.0,8.0,72,0.00,,,0.00,0.0,meteohub,2013-02-04 09:47:00,
2013-02-04 04:52:00,25.5,17.8,29.99,ENE,65,0.0,16.0,72,0.00,,,0.00,0.0,meteohub,2013-02-04 09:52:00,
2013-02-04 04:57:00,25.5,18.1,29.99,NNW,334,2.0,16.0,73,0.00,,,0.00,0.0,meteohub,2013-02-04 09:57:00,
2013-02-04 05:02:00,25.5,18.1,29.99,NNW,333,3.0,16.0,73,0.00,,,0.00,0.0,meteohub,2013-02-04 10:02:00,
2013-02-04 05:07:00,25.5,17.8,29.99,NNW,341,2.0,16.0,72,0.00,,,0.00,0.0,meteohub,2013-02-04 10:07:00,
2013-02-04 05:12:00,25.7,18.0,29.98,NNW,346,4.0,16.0,72,0.00,,,0.00,0.0,meteohub,2013-02-04 10:12:00,
2013-02-04 05:17:00,25.9,17.8,29.99,NNW,342,4.0,16.0,71,0.00,,,0.00,0.0,meteohub,2013-02-04 10:17:00,
2013-02-04 05:22:00,26.2,17.8,29.98,NW,325,2.0,19.0,70,0.00,,,0.00,0.0,meteohub,2013-02-04 10:22:00,
2013-02-04 05:27:00,26.4,18.0,29.98,North,0,3.0,19.0,70,0.00,,,0.00,0.0,meteohub,2013-02-04 10:27:00,
2013-02-04 05:32:00,26.6,17.8,29.98,NNW,342,4.0,15.0,69,0.00,,,0.00,0.0,meteohub,2013-02-04 10:32:00,
2013-02-04 05:37:00,26.8,17.6,29.98,NW,325,2.0,13.0,68,0.00,,,0.00,0.0,meteohub,2013-02-04 10:37:00,
2013-02-04 05:42:00,27.0,17.8,29.98,NW,319,3.0,11.0,68,0.00,,,0.00,0.0,meteohub,2013-02-04 10:42:00,
2013-02-04 05:47:00,27.1,17.6,29.98,WSW,246,2.0,7.0,67,0.00,,,0.00,0.0,meteohub,2013-02-04 10:47:00,
2013-02-04 05:52:00,27.5,17.6,29.98,NW,319,6.0,11.0,66,0.00,,,0.00,0.0,meteohub,2013-02-04 10:52:00,
2013-02-04 05:57:00,27.9,17.6,29.99,NNE,13,3.0,17.0,65,0.00,,,0.00,0.0,meteohub,2013-02-04 10:57:00,
2013-02-04 06:02:00,28.0,17.4,29.98,NNE,20,2.0,17.0,64,0.00,,,0.00,0.0,meteohub,2013-02-04 11:02:00,
2013-02-04 06:07:00,28.4,17.1,29.99,NNE,33,0.0,17.0,62,0.00,,,0.00,0.0,meteohub,2013-02-04 11:07:00,
2013-02-04 06:12:00,28.9,17.2,29.99,East,97,0.0,11.0,61,0.00,,,0.00,0.0,meteohub,2013-02-04 11:12:00,
2013-02-04 06:17:00,29.8,16.9,29.99,ESE,121,5.0,9.0,58,0.00,,,0.00,0.0,meteohub,2013-02-04 11:17:00,
2013-02-04 06:22:00,30.6,16.7,29.99,SE,145,1.0,11.0,56,0.00,,,0.00,0.0,meteohub,2013-02-04 11:22:00,
2013-02-04 06:27:00,31.1,17.2,29.99,NE,38,1.0,11.0,56,0.00,,,0.00,0.0,meteohub,2013-02-04 11:27:00,
2013-02-04 06:32:00,31.3,17.1,30.00,SW,227,0.0,11.0,55,0.00,,,0.00,0.0,meteohub,2013-02-04 11:32:00,
2013-02-04 06:37:00,31.5,16.7,30.00,North,5,0.0,7.0,54,0.00,,,0.00,0.0,meteohub,2013-02-04 11:37:00,
2013-02-04 06:42:00,31.6,16.9,30.01,West,273,3.0,4.0,54,0.00,,,0.00,0.0,meteohub,2013-02-04 11:42:00,
2013-02-04 06:47:00,31.6,16.9,30.01,NNE,15,2.0,4.0,54,0.00,,,0.00,0.0,meteohub,2013-02-04 11:47:00,
2013-02-04 06:52:00,31.6,16.9,30.01,WNW,297,3.0,4.0,54,0.00,,,0.00,0.0,meteohub,2013-02-04 11:52:00,
2013-02-04 06:57:00,31.5,17.2,30.01,North,5,0.0,4.0,55,0.00,,,0.00,0.0,meteohub,2013-02-04 11:57:00,
2013-02-04 07:02:00,31.3,17.1,30.01,South,191,2.0,4.0,55,0.00,,,0.00,0.0,meteohub,2013-02-04 12:02:00,
2013-02-04 07:07:00,31.5,17.2,30.01,NNW,345,0.0,5.0,55,0.00,,,0.00,0.0,meteohub,2013-02-04 12:07:00,
2013-02-04 07:12:00,31.3,17.1,30.01,NNW,340,4.0,5.0,55,0.00,,,0.00,0.0,meteohub,2013-02-04 12:12:00,
2013-02-04 07:17:00,31.3,17.1,30.02,NNE,17,2.0,6.0,55,0.00,,,0.00,0.0,meteohub,2013-02-04 12:17:00,
2013-02-04 07:23:00,31.3,17.1,30.03,NNW,340,0.0,6.0,55,0.00,,,0.00,0.0,meteohub,2013-02-04 12:23:00,
2013-02-04 07:29:00,31.3,17.1,30.03,NW,311,4.0,6.0,55,0.00,,,0.00,5.0,meteohub,2013-02-04 12:29:00,
2013-02-04 07:35:00,31.5,17.2,30.03,NNW,344,1.0,6.0,55,0.00,,,0.00,7.0,meteohub,2013-02-04 12:35:00,
2013-02-04 07:41:00,31.8,17.4,30.03,NNW,336,3.0,13.0,55,0.00,,,0.00,11.0,meteohub,2013-02-04 12:41:00,
2013-02-04 07:47:00,31.8,17.4,30.04,North,5,1.0,13.0,55,0.00,,,0.00,16.0,meteohub,2013-02-04 12:47:00,
2013-02-04 07:52:00,32.4,18.0,30.04,ESE,106,1.0,13.0,55,0.00,,,0.00,26.0,meteohub,2013-02-04 12:52:00,
2013-02-04 07:57:00,32.7,18.3,30.04,NNW,345,0.0,10.0,55,0.00,,,0.00,30.0,meteohub,2013-02-04 12:57:00,
2013-02-04 08:02:00,33.1,18.3,30.04,SSW,213,0.0,5.0,54,0.00,,,0.00,37.0,meteohub,2013-02-04 13:02:00,
2013-02-04 08:07:00,33.3,18.5,30.04,NNW,342,3.0,5.0,54,0.00,,,0.00,33.0,meteohub,2013-02-04 13:07:00,
2013-02-04 08:12:00,33.1,18.7,30.04,SSW,207,1.0,4.0,55,0.00,,,0.00,42.0,meteohub,2013-02-04 13:12:00,
2013-02-04 08:17:00,33.3,18.9,30.05,WSW,248,2.0,5.0,55,0.00,,,0.00,53.0,meteohub,2013-02-04 13:17:00,
2013-02-04 08:22:00,33.6,18.7,30.04,SSW,211,1.0,5.0,54,0.00,,,0.00,74.0,meteohub,2013-02-04 13:22:00,
2013-02-04 08:27:00,33.4,18.5,30.04,NNW,328,3.0,5.0,54,0.00,,,0.00,90.0,meteohub,2013-02-04 13:27:00,
2013-02-04 08:32:00,33.1,18.3,30.04,North,350,3.0,8.0,54,0.00,,,0.00,88.0,meteohub,2013-02-04 13:32:00,
2013-02-04 08:37:00,32.7,18.0,30.04,WNW,302,2.0,12.0,54,0.00,,,0.00,84.0,meteohub,2013-02-04 13:37:00,
2013-02-04 08:42:00,33.1,18.7,30.05,North,355,0.0,12.0,55,0.00,,,0.00,98.0,meteohub,2013-02-04 13:42:00,
2013-02-04 08:47:00,33.3,18.9,30.05,North,0,3.0,12.0,55,0.00,,,0.00,137.0,meteohub,2013-02-04 13:47:00,
2013-02-04 08:52:00,33.4,19.4,30.05,NNE,21,3.0,12.0,56,0.00,,,0.00,123.0,meteohub,2013-02-04 13:52:00,
2013-02-04 08:57:00,33.6,19.2,30.05,North,9,3.0,6.0,55,0.00,,,0.00,105.0,meteohub,2013-02-04 13:57:00,
2013-02-04 09:02:00,34.0,19.9,30.06,North,5,1.0,6.0,56,0.00,,,0.00,107.0,meteohub,2013-02-04 14:02:00,
2013-02-04 09:07:00,34.0,19.9,30.06,North,5,0.0,6.0,56,0.00,,,0.00,102.0,meteohub,2013-02-04 14:07:00,
2013-02-04 09:12:00,34.2,20.5,30.07,North,5,0.0,4.0,57,0.00,,,0.00,121.0,meteohub,2013-02-04 14:12:00,
2013-02-04 09:17:00,34.2,20.5,30.07,North,5,0.0,2.0,57,0.00,,,0.00,169.0,meteohub,2013-02-04 14:17:00,
2013-02-04 09:22:00,34.2,20.5,30.07,South,169,1.0,4.0,57,0.00,,,0.00,225.0,meteohub,2013-02-04 14:22:00,
2013-02-04 09:27:00,34.5,20.8,30.07,SSE,166,0.0,4.0,57,0.00,,,0.00,251.0,meteohub,2013-02-04 14:27:00,
2013-02-04 09:32:00,35.1,21.0,30.07,SSE,166,0.0,4.0,56,0.00,,,0.00,246.0,meteohub,2013-02-04 14:32:00,
2013-02-04 09:37:00,36.0,21.4,30.06,SSE,166,0.0,4.0,55,0.00,,,0.00,294.0,meteohub,2013-02-04 14:37:00,
2013-02-04 09:42:00,37.2,23.0,30.06,North,355,2.0,2.0,56,0.00,,,0.00,339.0,meteohub,2013-02-04 14:42:00,
2013-02-04 09:47:00,38.7,23.0,30.06,SW,234,0.0,3.0,53,0.00,,,0.00,399.0,meteohub,2013-02-04 14:47:00,
2013-02-04 09:52:00,39.9,23.2,30.06,South,174,1.0,3.0,51,0.00,,,0.00,371.0,meteohub,2013-02-04 14:52:00,
2013-02-04 09:57:00,40.3,22.6,30.06,South,169,0.0,4.0,49,0.00,,,0.00,114.0,meteohub,2013-02-04 14:57:00,
2013-02-04 10:02:00,39.9,21.7,30.06,SSE,150,0.0,4.0,48,0.00,,,0.00,120.0,meteohub,2013-02-04 15:02:00,
2013-02-04 10:07:00,38.8,21.4,30.06,SSE,150,1.0,4.0,49,0.00,,,0.00,151.0,meteohub,2013-02-04 15:07:00,
2013-02-04 10:12:00,37.9,21.9,30.06,SSE,165,2.0,4.0,52,0.00,,,0.00,162.0,meteohub,2013-02-04 15:12:00,
2013-02-04 10:17:00,37.2,21.7,30.06,SSE,167,2.0,4.0,53,0.00,,,0.00,163.0,meteohub,2013-02-04 15:17:00,
2013-02-04 10:22:00,36.7,21.6,30.07,South,178,0.0,4.0,54,0.00,,,0.00,158.0,meteohub,2013-02-04 15:22:00,
2013-02-04 10:27:00,36.3,21.7,30.07,South,175,2.0,4.0,55,0.00,,,0.00,155.0,meteohub,2013-02-04 15:27:00,
2013-02-04 10:32:00,36.1,21.9,30.07,SSE,155,1.0,4.0,56,0.00,,,0.00,172.0,meteohub,2013-02-04 15:32:00,
2013-02-04 10:37:00,36.0,22.6,30.07,SSE,159,0.0,4.0,58,0.00,,,0.00,195.0,meteohub,2013-02-04 15:37:00,
2013-02-04 10:42:00,35.8,23.7,30.07,SSE,159,0.0,4.0,61,0.00,,,0.00,230.0,meteohub,2013-02-04 15:42:00,
2013-02-04 10:47:00,36.0,23.4,30.08,SSE,159,1.0,4.0,60,0.00,,,0.00,274.0,meteohub,2013-02-04 15:47:00,
2013-02-04 10:52:00,36.0,23.0,30.08,ESE,123,0.0,2.0,59,0.00,,,0.00,288.0,meteohub,2013-02-04 15:52:00,
2013-02-04 10:57:00,36.3,23.7,30.09,East,97,0.0,2.0,60,0.00,,,0.00,255.0,meteohub,2013-02-04 15:57:00,
2013-02-04 11:02:00,36.7,24.1,30.08,SE,139,2.0,5.0,60,0.00,,,0.00,239.0,meteohub,2013-02-04 16:02:00,
2013-02-04 11:07:00,37.2,24.3,30.08,SE,144,1.0,5.0,59,0.00,,,0.00,257.0,meteohub,2013-02-04 16:07:00,
2013-02-04 11:12:00,37.6,24.6,30.08,SE,144,0.0,5.0,59,0.00,,,0.00,295.0,meteohub,2013-02-04 16:12:00,
2013-02-04 11:17:00,38.3,23.5,30.08,ESE,121,1.0,5.0,55,0.00,,,0.00,348.0,meteohub,2013-02-04 16:17:00,
2013-02-04 11:22:00,39.2,23.5,30.08,SSE,165,0.0,5.0,53,0.00,,,0.00,306.0,meteohub,2013-02-04 16:22:00,
2013-02-04 11:27:00,39.9,22.8,30.08,SSE,153,2.0,7.0,50,0.00,,,0.00,294.0,meteohub,2013-02-04 16:27:00,
2013-02-04 11:32:00,40.3,22.6,30.08,SE,130,0.0,7.0,49,0.00,,,0.00,385.0,meteohub,2013-02-04 16:32:00,
2013-02-04 11:39:00,41.2,20.8,30.07,SE,129,0.0,6.0,44,0.00,,,0.00,322.0,meteohub,2013-02-04 16:39:00,
2013-02-04 11:45:00,41.5,21.2,30.07,SE,129,1.0,17.0,44,0.00,,,0.00,373.0,meteohub,2013-02-04 16:45:00,
2013-02-04 11:51:00,42.1,21.7,30.06,SW,234,0.0,17.0,44,0.00,,,0.00,336.0,meteohub,2013-02-04 16:51:00,
2013-02-04 11:57:00,42.4,22.1,30.06,SW,215,1.0,11.0,44,0.00,,,0.00,432.0,meteohub,2013-02-04 16:57:00,
2013-02-04 12:02:00,43.0,22.1,30.06,SSE,154,5.0,11.0,43,0.00,,,0.00,566.0,meteohub,2013-02-04 17:02:00,
2013-02-04 12:07:00,43.3,21.2,30.06,SSE,161,6.0,11.0,41,0.00,,,0.00,643.0,meteohub,2013-02-04 17:07:00,
2013-02-04 12:12:00,43.5,21.9,30.06,SSE,156,0.0,11.0,42,0.00,,,0.00,571.0,meteohub,2013-02-04 17:12:00,
2013-02-04 12:17:00,44.1,23.0,30.05,ESE,118,0.0,11.0,43,0.00,,,0.00,439.0,meteohub,2013-02-04 17:17:00,
2013-02-04 12:22:00,44.8,21.9,30.05,NE,51,0.0,11.0,40,0.00,,,0.00,450.0,meteohub,2013-02-04 17:22:00,
2013-02-04 12:27:00,45.0,22.6,30.05,SSE,161,4.0,7.0,41,0.00,,,0.00,424.0,meteohub,2013-02-04 17:27:00,
2013-02-04 12:33:00,45.3,23.5,30.05,SSE,158,8.0,8.0,42,0.00,,,0.00,584.0,meteohub,2013-02-04 17:33:00,
2013-02-04 12:39:00,45.9,23.5,30.04,SSE,164,4.0,9.0,41,0.00,,,0.00,582.0,meteohub,2013-02-04 17:39:00,
2013-02-04 12:45:00,46.6,24.1,30.04,SSE,148,2.0,8.0,41,0.00,,,0.00,504.0,meteohub,2013-02-04 17:45:00,
2013-02-04 12:51:00,46.6,24.1,30.04,SE,142,2.0,8.0,41,0.00,,,0.00,471.0,meteohub,2013-02-04 17:51:00,
2013-02-04 12:57:00,46.4,24.6,30.03,SSE,154,6.0,8.0,42,0.00,,,0.00,469.0,meteohub,2013-02-04 17:57:00,
2013-02-04 13:02:00,46.4,25.2,30.03,SSE,147,1.0,9.0,43,0.00,,,0.00,510.0,meteohub,2013-02-04 18:02:00,
2013-02-04 13:07:00,46.6,25.3,30.03,South,169,2.0,9.0,43,0.00,,,0.00,480.0,meteohub,2013-02-04 18:07:00,
2013-02-04 13:12:00,46.4,25.2,30.03,ESE,105,1.0,9.0,43,0.00,,,0.00,527.0,meteohub,2013-02-04 18:12:00,
2013-02-04 13:17:00,46.4,25.7,30.02,South,171,4.0,8.0,44,0.00,,,0.00,519.0,meteohub,2013-02-04 18:17:00,
2013-02-04 13:22:00,46.8,25.5,30.02,South,169,4.0,8.0,43,0.00,,,0.00,425.0,meteohub,2013-02-04 18:22:00,
2013-02-04 13:27:00,46.6,25.3,30.02,East,92,5.0,10.0,43,0.00,,,0.00,561.0,meteohub,2013-02-04 18:27:00,
2013-02-04 13:32:00,46.8,24.8,30.02,SSE,153,6.0,12.0,42,0.00,,,0.00,496.0,meteohub,2013-02-04 18:32:00,
2013-02-04 13:37:00,46.8,25.5,30.02,South,178,0.0,12.0,43,0.00,,,0.00,408.0,meteohub,2013-02-04 18:37:00,
2013-02-04 13:42:00,46.8,24.8,30.01,South,182,2.0,12.0,42,0.00,,,0.00,397.0,meteohub,2013-02-04 18:42:00,
2013-02-04 13:47:00,46.6,25.3,30.01,SSE,148,2.0,8.0,43,0.00,,,0.00,320.0,meteohub,2013-02-04 18:47:00,
2013-02-04 13:52:00,46.9,25.5,30.01,SE,139,6.0,8.0,43,0.00,,,0.00,350.0,meteohub,2013-02-04 18:52:00,
2013-02-04 13:58:00,46.9,25.0,30.01,SE,137,4.0,7.0,42,0.00,,,0.00,334.0,meteohub,2013-02-04 18:58:00,
2013-02-04 14:04:00,46.9,25.0,30.01,South,181,3.0,9.0,42,0.00,,,0.00,343.0,meteohub,2013-02-04 19:04:00,
2013-02-04 14:10:00,46.8,24.3,30.01,SSE,154,4.0,9.0,41,0.00,,,0.00,348.0,meteohub,2013-02-04 19:10:00,
2013-02-04 14:16:00,46.6,25.3,30.01,SE,143,6.0,9.0,43,0.00,,,0.00,367.0,meteohub,2013-02-04 19:16:00,
2013-02-04 14:22:00,46.6,25.3,30.00,SSE,150,2.0,8.0,43,0.00,,,0.00,380.0,meteohub,2013-02-04 19:22:00,
2013-02-04 14:27:00,46.6,24.8,30.00,ESE,122,4.0,8.0,42,0.00,,,0.00,299.0,meteohub,2013-02-04 19:27:00,
2013-02-04 14:32:00,46.2,25.0,30.00,ESE,113,5.0,8.0,43,0.00,,,0.00,323.0,meteohub,2013-02-04 19:32:00,
2013-02-04 14:37:00,46.4,25.2,30.00,South,182,1.0,7.0,43,0.00,,,0.00,315.0,meteohub,2013-02-04 19:37:00,
2013-02-04 14:42:00,46.2,25.0,30.00,South,180,1.0,7.0,43,0.00,,,0.00,329.0,meteohub,2013-02-04 19:42:00,
2013-02-04 14:47:00,46.2,24.4,29.99,South,175,0.0,8.0,42,0.00,,,0.00,265.0,meteohub,2013-02-04 19:47:00,
2013-02-04 14:52:00,46.4,25.2,30.00,SSE,157,2.0,8.0,43,0.00,,,0.00,290.0,meteohub,2013-02-04 19:52:00,
2013-02-04 14:57:00,46.2,25.5,29.99,ESE,108,0.0,8.0,44,0.00,,,0.00,294.0,meteohub,2013-02-04 19:57:00,
2013-02-04 15:02:00,46.2,25.5,29.99,South,181,2.0,8.0,44,0.00,,,0.00,260.0,meteohub,2013-02-04 20:02:00,
2013-02-04 15:07:00,46.2,25.0,29.99,SSE,157,5.0,7.0,43,0.00,,,0.00,269.0,meteohub,2013-02-04 20:07:00,
2013-02-04 15:12:00,46.0,25.3,29.99,SSE,163,0.0,7.0,44,0.00,,,0.00,253.0,meteohub,2013-02-04 20:12:00,
2013-02-04 15:17:00,46.2,24.4,29.99,SSE,161,6.0,8.0,42,0.00,,,0.00,220.0,meteohub,2013-02-04 20:17:00,
2013-02-04 15:22:00,45.9,24.1,29.99,SSE,164,5.0,10.0,42,0.00,,,0.00,216.0,meteohub,2013-02-04 20:22:00,
2013-02-04 15:27:00,45.5,24.3,29.99,South,169,0.0,10.0,43,0.00,,,0.00,207.0,meteohub,2013-02-04 20:27:00,
2013-02-04 15:32:00,45.3,23.5,29.98,SSE,159,6.0,10.0,42,0.00,,,0.00,207.0,meteohub,2013-02-04 20:32:00,
2013-02-04 15:37:00,45.0,23.7,29.99,SSE,167,1.0,8.0,43,0.00,,,0.00,209.0,meteohub,2013-02-04 20:37:00,
2013-02-04 15:43:00,45.0,23.7,29.99,South,174,1.0,8.0,43,0.00,,,0.00,236.0,meteohub,2013-02-04 20:43:00,
2013-02-04 15:49:00,45.1,23.9,29.99,ESE,112,1.0,8.0,43,0.00,,,0.00,232.0,meteohub,2013-02-04 20:49:00,
2013-02-04 15:55:00,45.1,23.9,29.99,SE,130,5.0,8.0,43,0.00,,,0.00,200.0,meteohub,2013-02-04 20:55:00,
2013-02-04 16:02:00,45.0,23.7,29.99,SSE,166,5.0,8.0,43,0.00,,,0.00,163.0,meteohub,2013-02-04 21:02:00,
2013-02-04 16:07:00,44.8,24.3,29.99,SSE,155,5.0,7.0,44,0.00,,,0.00,139.0,meteohub,2013-02-04 21:07:00,
2013-02-04 16:12:00,44.4,24.4,29.99,South,169,2.0,7.0,45,0.00,,,0.00,141.0,meteohub,2013-02-04 21:12:00,
2013-02-04 16:17:00,44.1,24.1,29.98,South,179,0.0,7.0,45,0.00,,,0.00,132.0,meteohub,2013-02-04 21:17:00,
2013-02-04 16:22:00,43.9,23.9,29.98,South,188,2.0,7.0,45,0.00,,,0.00,128.0,meteohub,2013-02-04 21:22:00,
2013-02-04 16:27:00,43.3,24.4,29.99,SSE,159,0.0,7.0,47,0.00,,,0.00,109.0,meteohub,2013-02-04 21:27:00,
2013-02-04 16:32:00,43.2,24.3,29.99,SE,128,1.0,7.0,47,0.00,,,0.00,90.0,meteohub,2013-02-04 21:32:00,
2013-02-04 16:37:00,42.8,24.4,29.99,SSE,156,1.0,5.0,48,0.00,,,0.00,60.0,meteohub,2013-02-04 21:37:00,
2013-02-04 16:42:00,42.4,24.1,29.99,SE,142,0.0,8.0,48,0.00,,,0.00,81.0,meteohub,2013-02-04 21:42:00,
2013-02-04 16:47:00,42.3,23.9,29.99,South,187,0.0,8.0,48,0.00,,,0.00,76.0,meteohub,2013-02-04 21:47:00,
2013-02-04 16:52:00,42.1,24.3,29.99,South,190,1.0,6.0,49,0.00,,,0.00,70.0,meteohub,2013-02-04 21:52:00,
2013-02-04 16:57:00,42.1,24.3,29.98,SSW,196,0.0,4.0,49,0.00,,,0.00,63.0,meteohub,2013-02-04 21:57:00,
2013-02-04 17:02:00,41.7,23.9,29.98,South,181,1.0,5.0,49,0.00,,,0.00,63.0,meteohub,2013-02-04 22:02:00,
2013-02-04 17:07:00,41.5,23.7,29.98,South,185,0.0,5.0,49,0.00,,,0.00,56.0,meteohub,2013-02-04 22:07:00,
2013-02-04 17:12:00,41.4,23.2,29.98,South,186,2.0,6.0,48,0.00,,,0.00,49.0,meteohub,2013-02-04 22:12:00,
2013-02-04 17:17:00,41.2,23.9,29.98,South,178,1.0,6.0,50,0.00,,,0.00,47.0,meteohub,2013-02-04 22:17:00,
2013-02-04 17:22:00,40.8,23.5,29.98,South,179,4.0,7.0,50,0.00,,,0.00,44.0,meteohub,2013-02-04 22:22:00,
2013-02-04 17:27:00,40.6,23.5,29.98,South,170,2.0,7.0,50,0.00,,,0.00,33.0,meteohub,2013-02-04 22:27:00,
2013-02-04 17:32:00,40.5,24.3,29.97,South,182,1.0,8.0,52,0.00,,,0.00,26.0,meteohub,2013-02-04 22:32:00,
2013-02-04 17:37:00,40.1,23.4,29.97,SSW,196,1.0,8.0,51,0.00,,,0.00,21.0,meteohub,2013-02-04 22:37:00,
2013-02-04 17:42:00,39.7,24.1,29.98,South,182,3.0,8.0,53,0.00,,,0.00,18.0,meteohub,2013-02-04 22:42:00,
2013-02-04 17:47:00,39.6,23.0,29.98,SSW,192,1.0,6.0,51,0.00,,,0.00,12.0,meteohub,2013-02-04 22:47:00,
2013-02-04 17:52:00,39.4,23.2,29.97,WSW,241,0.0,7.0,52,0.00,,,0.00,5.0,meteohub,2013-02-04 22:52:00,
2013-02-04 17:57:00,39.0,23.4,29.97,SSW,192,0.0,7.0,53,0.00,,,0.00,0.0,meteohub,2013-02-04 22:57:00,
2013-02-04 18:02:00,38.7,23.0,29.98,South,181,0.0,7.0,53,0.00,,,0.00,0.0,meteohub,2013-02-04 23:02:00,
2013-02-04 18:07:00,38.5,22.8,29.98,SW,221,2.0,5.0,53,0.00,,,0.00,0.0,meteohub,2013-02-04 23:07:00,
2013-02-04 18:12:00,38.5,22.8,29.98,South,184,5.0,6.0,53,0.00,,,0.00,0.0,meteohub,2013-02-04 23:12:00,
2013-02-04 18:17:00,38.7,23.0,29.98,SSE,155,5.0,7.0,53,0.00,,,0.00,0.0,meteohub,2013-02-04 23:17:00,
2013-02-04 18:22:00,38.7,23.4,29.98,South,173,2.0,8.0,54,0.00,,,0.00,0.0,meteohub,2013-02-04 23:22:00,
2013-02-04 18:27:00,38.5,23.4,29.98,South,172,1.0,9.0,54,0.00,,,0.00,0.0,meteohub,2013-02-04 23:27:00,
2013-02-04 18:32:00,38.5,22.8,29.98,SSE,166,1.0,9.0,53,0.00,,,0.00,0.0,meteohub,2013-02-04 23:32:00,
2013-02-04 18:37:00,38.5,23.4,29.98,SSW,196,0.0,9.0,54,0.00,,,0.00,0.0,meteohub,2013-02-04 23:37:00,
2013-02-04 18:42:00,38.3,23.5,29.98,SE,136,7.0,9.0,55,0.00,,,0.00,0.0,meteohub,2013-02-04 23:42:00,
2013-02-04 18:47:00,38.5,23.4,29.98,SSW,198,0.0,9.0,54,0.00,,,0.00,0.0,meteohub,2013-02-04 23:47:00,
2013-02-04 18:52:00,38.1,23.0,29.98,WSW,249,0.0,8.0,54,0.00,,,0.00,0.0,meteohub,2013-02-04 23:52:00,
2013-02-04 18:57:00,37.9,22.8,29.97,SE,131,0.0,8.0,54,0.00,,,0.00,0.0,meteohub,2013-02-04 23:57:00,
2013-02-04 19:02:00,37.8,23.0,29.98,SW,233,0.0,6.0,55,0.00,,,0.00,0.0,meteohub,2013-02-05 00:02:00,
2013-02-04 19:07:00,37.6,22.8,29.97,SSE,159,0.0,6.0,55,0.00,,,0.00,0.0,meteohub,2013-02-05 00:07:00,
2013-02-04 19:12:00,37.4,23.2,29.97,SSW,200,2.0,6.0,56,0.00,,,0.00,0.0,meteohub,2013-02-05 00:12:00,
2013-02-04 19:17:00,37.0,22.8,29.97,South,173,0.0,6.0,56,0.00,,,0.00,0.0,meteohub,2013-02-05 00:17:00,
2013-02-04 19:22:00,36.9,23.0,29.97,SE,144,1.0,6.0,57,0.00,,,0.00,0.0,meteohub,2013-02-05 00:22:00,
2013-02-04 19:27:00,36.9,23.0,29.98,SSE,161,5.0,6.0,57,0.00,,,0.00,0.0,meteohub,2013-02-05 00:27:00,
2013-02-04 19:32:00,36.9,23.5,29.98,South,188,1.0,8.0,58,0.00,,,0.00,0.0,meteohub,2013-02-05 00:32:00,
2013-02-04 19:37:00,36.7,23.4,29.98,South,185,0.0,8.0,58,0.00,,,0.00,0.0,meteohub,2013-02-05 00:37:00,
2013-02-04 19:42:00,36.5,23.5,29.98,SSW,202,1.0,5.0,59,0.00,,,0.00,0.0,meteohub,2013-02-05 00:42:00,
2013-02-04 19:47:00,36.3,23.7,29.98,SSW,198,0.0,5.0,60,0.00,,,0.00,0.0,meteohub,2013-02-05 00:47:00,
2013-02-04 19:52:00,36.1,23.5,29.98,South,184,1.0,5.0,60,0.00,,,0.00,0.0,meteohub,2013-02-05 00:52:00,
2013-02-04 19:57:00,36.1,23.5,29.97,SE,141,2.0,5.0,60,0.00,,,0.00,0.0,meteohub,2013-02-05 00:57:00,
2013-02-04 20:02:00,36.1,24.1,29.97,SSE,154,1.0,5.0,61,0.00,,,0.00,0.0,meteohub,2013-02-05 01:02:00,
2013-02-04 20:07:00,36.1,24.1,29.97,South,171,2.0,5.0,61,0.00,,,0.00,0.0,meteohub,2013-02-05 01:07:00,
2013-02-04 20:12:00,36.3,24.6,29.98,SE,128,1.0,6.0,62,0.00,,,0.00,0.0,meteohub,2013-02-05 01:12:00,
2013-02-04 20:17:00,36.3,24.6,29.98,South,180,0.0,9.0,62,0.00,,,0.00,0.0,meteohub,2013-02-05 01:17:00,
2013-02-04 20:24:00,36.7,25.0,29.98,WSW,256,0.0,9.0,62,0.00,,,0.00,0.0,meteohub,2013-02-05 01:24:00,
2013-02-04 20:30:00,36.7,25.0,29.98,SE,126,0.0,6.0,62,0.00,,,0.00,0.0,meteohub,2013-02-05 01:30:00,
2013-02-04 20:36:00,36.5,24.8,29.98,SE,142,1.0,7.0,62,0.00,,,0.00,0.0,meteohub,2013-02-05 01:36:00,
2013-02-04 20:42:00,36.3,25.0,29.97,SSE,149,0.0,7.0,63,0.00,,,0.00,0.0,meteohub,2013-02-05 01:42:00,
2013-02-04 20:47:00,36.1,24.8,29.97,East,80,0.0,7.0,63,0.00,,,0.00,0.0,meteohub,2013-02-05 01:47:00,
2013-02-04 20:54:00,36.0,25.3,29.97,ESE,106,0.0,6.0,65,0.00,,,0.00,0.0,meteohub,2013-02-05 01:54:00,
2013-02-04 21:00:00,35.8,25.5,29.97,WSW,239,3.0,6.0,66,0.00,,,0.00,0.0,meteohub,2013-02-05 02:00:00,
2013-02-04 21:06:00,35.6,25.7,29.98,SE,124,0.0,7.0,67,0.00,,,0.00,0.0,meteohub,2013-02-05 02:06:00,
2013-02-04 21:12:00,35.4,25.9,29.98,NNE,19,0.0,7.0,68,0.00,,,0.00,0.0,meteohub,2013-02-05 02:12:00,
2013-02-04 21:17:00,35.4,26.2,29.98,East,96,1.0,7.0,69,0.00,,,0.00,0.0,meteohub,2013-02-05 02:17:00,
2013-02-04 21:24:00,35.4,26.2,29.98,SSE,157,1.0,6.0,69,0.00,,,0.00,0.0,meteohub,2013-02-05 02:24:00,
2013-02-04 21:30:00,35.4,27.0,29.99,WSW,243,2.0,7.0,71,0.00,,,0.00,0.0,meteohub,2013-02-05 02:30:00,
2013-02-04 21:36:00,35.4,27.0,29.99,South,169,2.0,13.0,71,0.00,,,0.00,0.0,meteohub,2013-02-05 02:36:00,
2013-02-04 21:42:00,35.4,27.0,29.99,West,264,1.0,13.0,71,0.00,,,0.00,0.0,meteohub,2013-02-05 02:42:00,
2013-02-04 21:48:00,35.2,26.8,29.99,SW,231,0.0,13.0,71,0.00,,,0.00,0.0,meteohub,2013-02-05 02:48:00,
2013-02-04 21:54:00,35.4,26.6,29.99,SSW,202,4.0,13.0,70,0.00,,,0.00,0.0,meteohub,2013-02-05 02:54:00,
2013-02-04 22:01:00,35.4,26.2,29.99,South,188,3.0,10.0,69,0.00,,,0.00,0.0,meteohub,2013-02-05 03:01:00,
2013-02-04 22:07:00,35.8,26.2,29.98,South,175,6.0,13.0,68,0.00,,,0.00,0.0,meteohub,2013-02-05 03:07:00,
2013-02-04 22:12:00,36.0,26.1,29.98,South,170,7.0,13.0,67,0.00,,,0.00,0.0,meteohub,2013-02-05 03:12:00,
2013-02-04 22:17:00,36.1,25.9,29.98,SSW,207,1.0,13.0,66,0.00,,,0.00,0.0,meteohub,2013-02-05 03:17:00,
2013-02-04 22:22:00,36.1,25.9,29.98,SW,216,1.0,11.0,66,0.00,,,0.00,0.0,meteohub,2013-02-05 03:22:00,
2013-02-04 22:27:00,36.1,25.5,29.98,SSE,148,2.0,10.0,65,0.00,,,0.00,0.0,meteohub,2013-02-05 03:27:00,
2013-02-04 22:32:00,36.1,25.9,29.98,South,176,1.0,9.0,66,0.00,,,0.00,0.0,meteohub,2013-02-05 03:32:00,
2013-02-04 22:37:00,36.1,25.2,29.98,South,184,2.0,8.0,64,0.00,,,0.00,0.0,meteohub,2013-02-05 03:37:00,
2013-02-04 22:42:00,36.3,25.3,29.98,South,190,1.0,8.0,64,0.00,,,0.00,0.0,meteohub,2013-02-05 03:42:00,
2013-02-04 22:47:00,36.3,25.3,29.98,South,177,4.0,9.0,64,0.00,,,0.00,0.0,meteohub,2013-02-05 03:47:00,
2013-02-04 22:52:00,36.5,25.2,29.97,South,185,3.0,12.0,63,0.00,,,0.00,0.0,meteohub,2013-02-05 03:52:00,
2013-02-04 22:57:00,36.7,25.3,29.97,SSE,159,8.0,12.0,63,0.00,,,0.00,0.0,meteohub,2013-02-05 03:57:00,
2013-02-04 23:02:00,36.7,25.0,29.97,SSW,192,5.0,12.0,62,0.00,,,0.00,0.0,meteohub,2013-02-05 04:02:00,
2013-02-04 23:07:00,36.9,24.6,29.97,SSE,150,7.0,12.0,61,0.00,,,0.00,0.0,meteohub,2013-02-05 04:07:00,
2013-02-04 23:12:00,36.9,24.6,29.97,ESE,112,2.0,12.0,61,0.00,,,0.00,0.0,meteohub,2013-02-05 04:12:00,
2013-02-04 23:17:00,36.9,24.6,29.96,South,174,2.0,11.0,61,0.00,,,0.00,0.0,meteohub,2013-02-05 04:17:00,
2013-02-04 23:22:00,36.9,24.6,29.96,ENE,64,0.0,14.0,61,0.00,,,0.00,0.0,meteohub,2013-02-05 04:22:00,
2013-02-04 23:27:00,36.9,24.6,29.96,South,188,3.0,14.0,61,0.00,,,0.00,0.0,meteohub,2013-02-05 04:27:00,
2013-02-04 23:32:00,36.9,24.6,29.97,SSE,152,5.0,10.0,61,0.00,,,0.00,0.0,meteohub,2013-02-05 04:32:00,
2013-02-04 23:37:00,37.0,24.4,29.96,SSE,151,7.0,13.0,60,0.00,,,0.00,0.0,meteohub,2013-02-05 04:37:00,
2013-02-04 23:42:00,37.0,24.4,29.96,SSE,163,6.0,13.0,60,0.00,,,0.00,0.0,meteohub,2013-02-05 04:42:00,
2013-02-04 23:47:00,37.0,24.4,29.96,South,173,5.0,13.0,60,0.00,,,0.00,0.0,meteohub,2013-02-05 04:47:00,
2013-02-04 23:52:00,37.0,24.1,29.96,SE,146,9.0,13.0,59,0.00,,,0.00,0.0,meteohub,2013-02-05 04:52:00,
2013-02-04 23:57:00,37.0,24.1,29.95,SSE,162,6.0,13.0,59,0.00,,,0.00,0.0,meteohub,2013-02-05 04:57:00,